O3B FM13 (43234 NORAD) Tracking and Keplerian Element Data

This shows tracking and keplerian element data for the satellite.

Feedback or suggestion? Click here.




ElementValue
Catalog43234
NameO3B FM13
Epoch Orbit627
Epoch Day193.83064095
Epoch Year2018
RAAN2.4239
Inclination0.046
Eccentricity0.0002516
Argument of Perigee108.607
Mean Anonmoly248.9945
Mean Motion5.0011429
Decay Rate-2E-07
L11 43234U 18024D 18193.83064095 -.00000020 00000-0 00000-0 0 9991
L22 43234 0.0460 2.4239 0002516 108.6070 248.9945 5.00114290 6272

Live tracking and technical data element details for O3B FM13 (NORAD 43234). O3B FM13 can be tracked NOW for your location showing map with azimuth and elevation plus other details from your city location.

Track the satellite on the map from your city or location and see movement details for azimuth, elevation, latitude, longitude, range, height, and movement on the map or in text.







IsCatalogInMostPopularTable: catalog: 43234, numindb: 41
Update: records affected: 1



GetName: 43234 O3B FM13

Hit Count: updated at: Thu, 19 Jul 2018 21:26:46 GMT